Torna al catalogo

STARLINK-34419

AttivoComunicazioniVLEO
NORAD 64412·PAYLOAD·🇺🇸 United States

Lanciato Jun 17, 2025 da Vandenberg Space Force Base

Loading…

Prossimi Passaggi (prossime 24 ore)

TLE

AggiornatoSource: CelesTrak SupGP

Epoca: Sep 14, 2026, 21:16 UTC

1 64412C 25129A   26257.88659722 -.00008348  00000+0 -29056-3 0  2571
2 64412  69.9990 315.9747 0003310 268.8316  79.9851 15.29566265    15

Traccia STARLINK-34419 in tempo reale con AllMySat

Download on the App Store